User: anonymous   Login
Location: Unspecified
(0.0000°N, 0.0000°E)
Time: 23:32:12
(UTC+00:00)
Language:

NOSS 8 (F) - Orbit

View from above orbital plane
View from above orbital plane
View from above satellite
View from above satellite

Ground track
Ground track

The orbit data is extracted from the following two-line orbital elements,

1 18010U 87043F   18121.82150760 0.00001000  00000-0  11123-3 0    09
2 18010  63.2957   9.1828 0904819  50.0702 309.9298 13.45099285    03
Epoch (UTC): 01 May 2018 19:42:58
Eccentricity: 0.0904819
inclination: 63.2957°
perigee height: 414 km
apogee height: 1766 km
right ascension of ascending node: 9.1828°
argument of perigee: 50.0702°
revolutions per day: 13.45099285
mean anomaly at epoch: 309.9298°
orbit number at epoch: 0

The dashed part of the orbit path shows where the satellite is in the earth's shadow,  

DLR